owner,sensor,date,latitude,longitude,vertical_datum,wind_speed,wind_to_direction,wind_speed_of_gust,qcFlag 
TABS,ioos:station:wmo:42043:1,2006-03-01T00:00:00Z,28.9818,-94.9186,4.0,2.769205662,159.2747001,3.27,'11111222,11111222,11111222' 
TABS,ioos:station:wmo:42043:1,2006-03-01T00:30:00Z,28.9818,-94.9186,4.0,2.697850997,164.5216085,3.26,'11111222,11111222,11111222' 
TABS,ioos:station:wmo:42043:1,2006-03-01T01:00:00Z,28.9818,-94.9186,4.0,2.684660127,170.7835118,3.53,'11111222,11111222,11111222' 
TABS,ioos:station:wmo:42043:1,2006-03-01T01:30:00Z,28.9818,-94.9186,4.0,2.547567467,168.9108409,3.03,'11111222,11111222,11111222' 
TABS,ioos:station:wmo:42043:1,2006-03-01T02:00:00Z,28.9818,-94.9186,4.0,3.5013426,164.2571503,4.14,'11111222,11111222,11111222' 
TABS,ioos:station:wmo:42043:1,2006-03-01T02:30:00Z,28.9818,-94.9186,4.0,3.901858532,171.6001605,4.88,'11111222,11111222,11111222' 
TABS,ioos:station:wmo:42043:1,2006-03-01T03:00:00Z,28.9818,-94.9186,4.0,3.500428545,175.5764077,4.21,'11111222,11111222,11111222' 
TABS,ioos:station:wmo:42043:1,2006-03-01T03:30:00Z,28.9818,-94.9186,4.0,3.18127333,181.6213526,3.84,'11111222,11111222,11111222' 
TABS,ioos:station:wmo:42043:1,2006-03-01T04:00:00Z,28.9818,-94.9186,4.0,3.149936507,184.5523632,3.8,'11111222,11111222,11111222' 
TABS,ioos:station:wmo:42043:1,2006-03-01T04:30:00Z,28.9818,-94.9186,4.0,3.800013158,171.6782183,4.49,'11111222,11111222,11111222' 
TABS,ioos:station:wmo:42043:1,2006-03-01T05:00:00Z,28.9818,-94.9186,4.0,3.614484749,177.1457279,4.48,'11111222,11111222,11111222' 
TABS,ioos:station:wmo:42043:1,2006-03-01T05:30:00Z,28.9818,-94.9186,4.0,3.364312708,174.713282,3.96,'11111222,11111222,11111222' 
TABS,ioos:station:wmo:42043:1,2006-03-01T06:00:00Z,28.9818,-94.9186,4.0,3.457528019,168.6578055,4.23,'11111222,11111222,11111222' 
TABS,ioos:station:wmo:42043:1,2006-03-01T06:30:00Z,28.9818,-94.9186,4.0,3.953858875,168.1787498,4.84,'11111222,11111222,11111222' 
TABS,ioos:station:wmo:42043:1,2006-03-01T07:00:00Z,28.9818,-94.9186,4.0,3.50560979,167.3118839,4.39,'11111222,11111222,11111222' 
TABS,ioos:station:wmo:42043:1,2006-03-01T07:30:00Z,28.9818,-94.9186,4.0,3.393302226,162.152658,4.26,'11111222,11111222,11111222' 
TABS,ioos:station:wmo:42043:1,2006-03-01T08:00:00Z,28.9818,-94.9186,4.0,3.097256851,166.3677996,3.73,'11111222,11111222,11111222' 
TABS,ioos:station:wmo:42043:1,2006-03-01T08:30:00Z,28.9818,-94.9186,4.0,2.795084972,174.0448661,3.45,'11111222,11111222,11111222' 
TABS,ioos:station:wmo:42043:1,2006-03-01T09:00:00Z,28.9818,-94.9186,4.0,3.539519741,170.4048506,4.3,'11111222,11111222,11111222' 
TABS,ioos:station:wmo:42043:1,2006-03-01T09:30:00Z,28.9818,-94.9186,4.0,3.735304539,171.0674765,4.53,'11111222,11111222,11111222' 
TABS,ioos:station:wmo:42043:1,2006-03-01T10:00:00Z,28.9818,-94.9186,4.0,3.182656123,177.6592391,3.88,'11111222,11111222,11111222' 
TABS,ioos:station:wmo:42043:1,2006-03-01T10:30:00Z,28.9818,-94.9186,4.0,3.71856155,172.8943221,4.41,'11111222,11111222,11111222' 
TABS,ioos:station:wmo:42043:1,2006-03-01T11:00:00Z,28.9818,-94.9186,4.0,3.067523431,172.3191848,3.73,'11111222,11111222,11111222' 
TABS,ioos:station:wmo:42043:1,2006-03-01T11:30:00Z,28.9818,-94.9186,4.0,2.921386657,170.3444537,3.43,'11111222,11111222,11111222' 
TABS,ioos:station:wmo:42043:1,2006-03-01T12:00:00Z,28.9818,-94.9186,4.0,2.579399155,175.1074528,3.18,'11111222,11111222,11111222' 
TABS,ioos:station:wmo:42043:1,2006-03-01T12:30:00Z,28.9818,-94.9186,4.0,2.955486424,168.8804021,3.57,'11111222,11111222,11111222' 
TABS,ioos:station:wmo:42043:1,2006-03-01T13:00:00Z,28.9818,-94.9186,4.0,2.26861191,172.6559283,3.01,'11111222,11111222,11111222' 
TABS,ioos:station:wmo:42043:1,2006-03-01T13:30:00Z,28.9818,-94.9186,4.0,1.410886246,163.1065198,1.96,'11111222,11111222,11111222' 
TABS,ioos:station:wmo:42043:1,2006-03-01T14:00:00Z,28.9818,-94.9186,4.0,1.770988425,153.1458519,2.29,'11111222,11111222,11111222' 
TABS,ioos:station:wmo:42043:1,2006-03-01T14:30:00Z,28.9818,-94.9186,4.0,2.909467305,162.188059,3.46,'11111222,11111222,11111222' 
TABS,ioos:station:wmo:42043:1,2006-03-01T15:00:00Z,28.9818,-94.9186,4.0,2.614287666,168.303468,3.1,'11111222,11111222,11111222' 
TABS,ioos:station:wmo:42043:1,2006-03-01T15:30:00Z,28.9818,-94.9186,4.0,2.512309694,168.2877655,3.18,'11111222,11111222,11111222' 
TABS,ioos:station:wmo:42043:1,2006-03-01T16:00:00Z,28.9818,-94.9186,4.0,2.45367072,172.0352438,3.01,'11111222,11111222,11111222' 
TABS,ioos:station:wmo:42043:1,2006-03-01T16:30:00Z,28.9818,-94.9186,4.0,2.939727879,166.6258013,3.62,'11111222,11111222,11111222' 
TABS,ioos:station:wmo:42043:1,2006-03-01T17:00:00Z,28.9818,-94.9186,4.0,2.851560976,172.9499767,3.7,'11111222,11111222,11111222' 
TABS,ioos:station:wmo:42043:1,2006-03-01T17:30:00Z,28.9818,-94.9186,4.0,3.070065146,180.3734667,3.77,'11111222,11111222,11111222' 
TABS,ioos:station:wmo:42043:1,2006-03-01T18:00:00Z,28.9818,-94.9186,4.0,2.961367927,181.7417712,3.58,'11111222,11111222,11111222' 
TABS,ioos:station:wmo:42043:1,2006-03-01T18:30:00Z,28.9818,-94.9186,4.0,3.012391077,182.2832132,3.56,'11111222,11111222,11111222' 
TABS,ioos:station:wmo:42043:1,2006-03-01T19:00:00Z,28.9818,-94.9186,4.0,2.952964612,188.5693323,3.53,'11111222,11111222,11111222' 
TABS,ioos:station:wmo:42043:1,2006-03-01T19:30:00Z,28.9818,-94.9186,4.0,2.768754233,184.5576188,3.31,'11111222,11111222,11111222' 
TABS,ioos:station:wmo:42043:1,2006-03-01T20:00:00Z,28.9818,-94.9186,4.0,2.514478077,188.0013949,3.25,'11111222,11111222,11111222' 
TABS,ioos:station:wmo:42043:1,2006-03-01T20:30:00Z,28.9818,-94.9186,4.0,2.570175091,180.6690008,3.12,'11111222,11111222,11111222' 
TABS,ioos:station:wmo:42043:1,2006-03-01T21:00:00Z,28.9818,-94.9186,4.0,1.944865034,197.9693082,2.41,'11111222,11111222,11111222' 
TABS,ioos:station:wmo:42043:1,2006-03-01T21:30:00Z,28.9818,-94.9186,4.0,1.702615635,194.2812728,2.17,'11111222,11111222,11111222' 
TABS,ioos:station:wmo:42043:1,2006-03-01T22:00:00Z,28.9818,-94.9186,4.0,1.994492417,164.2916094,2.47,'11111222,11111222,11111222' 
TABS,ioos:station:wmo:42043:1,2006-03-01T22:30:00Z,28.9818,-94.9186,4.0,2.302628932,177.2620703,2.91,'11111222,11111222,11111222' 
TABS,ioos:station:wmo:42043:1,2006-03-01T23:00:00Z,28.9818,-94.9186,4.0,2.002498439,177.1378119,2.44,'11111222,11111222,11111222' 
TABS,ioos:station:wmo:42043:1,2006-03-01T23:30:00Z,28.9818,-94.9186,4.0,1.654236984,166.7200568,2.13,'11111222,11111222,11111222' 
TABS,ioos:station:wmo:42043:1,2006-03-02T00:00:00Z,28.9818,-94.9186,4.0,2.520337279,161.4934156,3.03,'11111222,11111222,11111222' 
TABS,ioos:station:wmo:42043:1,2006-03-02T00:30:00Z,28.9818,-94.9186,4.0,2.962853354,171.4599028,3.59,'11111222,11111222,11111222' 
TABS,ioos:station:wmo:42043:1,2006-03-02T01:00:00Z,28.9818,-94.9186,4.0,2.650358466,160.6081873,3.26,'11111222,11111222,11111222' 
TABS,ioos:station:wmo:42043:1,2006-03-02T01:30:00Z,28.9818,-94.9186,4.0,2.044749373,159.0834556,2.77,'11111222,11111222,11111222' 
TABS,ioos:station:wmo:42043:1,2006-03-02T02:00:00Z,28.9818,-94.9186,4.0,2.612661478,160.3169289,3.1,'11111222,11111222,11111222' 
TABS,ioos:station:wmo:42043:1,2006-03-02T02:30:00Z,28.9818,-94.9186,4.0,2.401270497,163.3010053,2.94,'11111222,11111222,11111222' 
TABS,ioos:station:wmo:42043:1,2006-03-02T03:00:00Z,28.9818,-94.9186,4.0,3.228188346,168.2029899,3.91,'11111222,11111222,11111222' 
TABS,ioos:station:wmo:42043:1,2006-03-02T03:30:00Z,28.9818,-94.9186,4.0,3.145790839,168.2616667,4.01,'11111222,11111222,11111222' 
TABS,ioos:station:wmo:42043:1,2006-03-02T04:00:00Z,28.9818,-94.9186,4.0,3.047654836,168.8377832,3.82,'11111222,11111222,11111222' 
TABS,ioos:station:wmo:42043:1,2006-03-02T04:30:00Z,28.9818,-94.9186,4.0,3.304920574,169.5403258,4.06,'11111222,11111222,11111222' 
TABS,ioos:station:wmo:42043:1,2006-03-02T05:00:00Z,28.9818,-94.9186,4.0,3.440058139,169.2782665,4.06,'11111222,11111222,11111222' 
TABS,ioos:station:wmo:42043:1,2006-03-02T05:30:00Z,28.9818,-94.9186,4.0,4.103961501,165.320636,5.06,'11111222,11111222,11111222' 
TABS,ioos:station:wmo:42043:1,2006-03-02T06:00:00Z,28.9818,-94.9186,4.0,5.022987159,162.863976,6.59,'11111222,11111222,11111222' 
TABS,ioos:station:wmo:42043:1,2006-03-02T06:30:00Z,28.9818,-94.9186,4.0,5.30935966,169.4733879,6.64,'11111222,11111222,11111222' 
TABS,ioos:station:wmo:42043:1,2006-03-02T07:00:00Z,28.9818,-94.9186,4.0,5.310677923,173.8387468,6.57,'11111222,11111222,11111222' 
TABS,ioos:station:wmo:42043:1,2006-03-02T07:30:00Z,28.9818,-94.9186,4.0,4.454952301,182.7020454,5.82,'11111222,11111222,11111222' 
TABS,ioos:station:wmo:42043:1,2006-03-02T08:00:00Z,28.9818,-94.9186,4.0,4.228486727,186.6546199,5.19,'11111222,11111222,11111222' 
TABS,ioos:station:wmo:42043:1,2006-03-02T08:30:00Z,28.9818,-94.9186,4.0,3.691571481,193.4717648,4.46,'11111222,11111222,11111222' 
TABS,ioos:station:wmo:42043:1,2006-03-02T09:00:00Z,28.9818,-94.9186,4.0,3.538827489,197.7695131,4.52,'11111222,11111222,11111222' 
TABS,ioos:station:wmo:42043:1,2006-03-02T09:30:00Z,28.9818,-94.9186,4.0,3.68089663,198.5335622,4.54,'11111222,11111222,11111222' 
TABS,ioos:station:wmo:42043:1,2006-03-02T10:00:00Z,28.9818,-94.9186,4.0,3.184540783,197.9230535,4.07,'11111222,11111222,11111222' 
TABS,ioos:station:wmo:42043:1,2006-03-02T10:30:00Z,28.9818,-94.9186,4.0,3.342528983,194.9095092,4.0,'11111222,11111222,11111222' 
TABS,ioos:station:wmo:42043:1,2006-03-02T11:00:00Z,28.9818,-94.9186,4.0,2.489437688,197.0521354,3.35,'11111222,11111222,11111222' 
TABS,ioos:station:wmo:42043:1,2006-03-02T11:30:00Z,28.9818,-94.9186,4.0,1.515849597,194.1280941,1.89,'11111222,11111222,11111222' 
TABS,ioos:station:wmo:42043:1,2006-03-02T12:00:00Z,28.9818,-94.9186,4.0,1.492548157,168.0127265,2.15,'11111222,11111222,11111222' 
TABS,ioos:station:wmo:42043:1,2006-03-02T12:30:00Z,28.9818,-94.9186,4.0,2.122192263,166.0949611,2.56,'11111222,11111222,11111222' 
TABS,ioos:station:wmo:42043:1,2006-03-02T13:00:00Z,28.9818,-94.9186,4.0,2.301521236,148.86575,2.98,'11111222,11111222,11111222' 
TABS,ioos:station:wmo:42043:1,2006-03-02T13:30:00Z,28.9818,-94.9186,4.0,2.859108253,149.7582689,3.49,'11111222,11111222,11111222' 
TABS,ioos:station:wmo:42043:1,2006-03-02T14:00:00Z,28.9818,-94.9186,4.0,1.822223916,124.0392373,2.37,'11111222,11111222,11111222' 
TABS,ioos:station:wmo:42043:1,2006-03-02T14:30:00Z,28.9818,-94.9186,4.0,2.184971396,45.18510647,2.82,'11111222,11111222,11111222' 
TABS,ioos:station:wmo:42043:1,2006-03-02T15:00:00Z,28.9818,-94.9186,4.0,2.221733557,75.40043807,2.71,'11111222,11111222,11111222' 
TABS,ioos:station:wmo:42043:1,2006-03-02T15:30:00Z,28.9818,-94.9186,4.0,2.354230235,80.21719493,2.77,'11111222,11111222,11111222' 
TABS,ioos:station:wmo:42043:1,2006-03-02T16:00:00Z,28.9818,-94.9186,4.0,1.882232717,75.22506336,2.36,'11111222,11111222,11111222' 
TABS,ioos:station:wmo:42043:1,2006-03-02T16:30:00Z,28.9818,-94.9186,4.0,1.642224102,83.00440314,2.06,'11111222,11111222,11111222' 
TABS,ioos:station:wmo:42043:1,2006-03-02T17:00:00Z,28.9818,-94.9186,4.0,1.443606595,137.246053,1.97,'11111222,11111222,11111222' 
TABS,ioos:station:wmo:42043:1,2006-03-02T17:30:00Z,28.9818,-94.9186,4.0,1.198665925,154.2903168,1.86,'11111222,11111222,11111222' 
TABS,ioos:station:wmo:42043:1,2006-03-02T18:00:00Z,28.9818,-94.9186,4.0,1.994918545,175.9759914,2.66,'11111222,11111222,11111222' 
TABS,ioos:station:wmo:42043:1,2006-03-02T18:30:00Z,28.9818,-94.9186,4.0,2.660676606,178.7080466,3.56,'11111222,11111222,11111222' 
TABS,ioos:station:wmo:42043:1,2006-03-02T19:00:00Z,28.9818,-94.9186,4.0,1.871309702,177.8564546,2.51,'11111222,11111222,11111222' 
TABS,ioos:station:wmo:42043:1,2006-03-02T19:30:00Z,28.9818,-94.9186,4.0,1.078702925,190.6850979,1.45,'11111222,11111222,11111222' 
TABS,ioos:station:wmo:42043:1,2006-03-02T20:00:00Z,28.9818,-94.9186,4.0,0.457055795,169.919636,0.96,'11111222,11111222,11111222' 
TABS,ioos:station:wmo:42043:1,2006-03-02T20:30:00Z,28.9818,-94.9186,4.0,0.785875308,194.7437388,1.6,'11111222,11111222,11111222' 
TABS,ioos:station:wmo:42043:1,2006-03-02T21:00:00Z,28.9818,-94.9186,4.0,1.083005078,137.6198584,1.59,'11111222,11111222,11111222' 
TABS,ioos:station:wmo:42043:1,2006-03-02T21:30:00Z,28.9818,-94.9186,4.0,1.572577502,123.5893592,2.22,'11111222,11111222,11111222' 
TABS,ioos:station:wmo:42043:1,2006-03-02T22:00:00Z,28.9818,-94.9186,4.0,1.870026738,127.1766233,2.4,'11111222,11111222,11111222' 
TABS,ioos:station:wmo:42043:1,2006-03-02T22:30:00Z,28.9818,-94.9186,4.0,2.407758294,124.6804432,2.96,'11111222,11111222,11111222' 
TABS,ioos:station:wmo:42043:1,2006-03-02T23:00:00Z,28.9818,-94.9186,4.0,2.909879723,122.6527564,3.56,'11111222,11111222,11111222' 
TABS,ioos:station:wmo:42043:1,2006-03-02T23:30:00Z,28.9818,-94.9186,4.0,3.096853242,131.2036543,4.09,'11111222,11111222,11111222' 
TABS,ioos:station:wmo:42043:1,2006-03-03T00:00:00Z,28.9818,-94.9186,4.0,2.640246201,137.6098395,3.13,'11111222,11111222,11111222' 
TABS,ioos:station:wmo:42043:1,2006-03-03T00:30:00Z,28.9818,-94.9186,4.0,2.428373942,153.3297047,3.02,'11111222,11111222,11111222' 
TABS,ioos:station:wmo:42043:1,2006-03-03T01:00:00Z,28.9818,-94.9186,4.0,2.737900656,145.2654321,3.26,'11111222,11111222,11111222' 
TABS,ioos:station:wmo:42043:1,2006-03-03T01:30:00Z,28.9818,-94.9186,4.0,2.801446055,155.5393865,3.4,'11111222,11111222,11111222' 
TABS,ioos:station:wmo:42043:1,2006-03-03T02:00:00Z,28.9818,-94.9186,4.0,2.53938969,141.2347812,3.23,'11111222,11111222,11111222' 
TABS,ioos:station:wmo:42043:1,2006-03-03T02:30:00Z,28.9818,-94.9186,4.0,2.356968392,115.9131158,2.93,'11111222,11111222,11111222' 
TABS,ioos:station:wmo:42043:1,2006-03-03T03:00:00Z,28.9818,-94.9186,4.0,2.345463707,93.91198358,2.83,'11111222,11111222,11111222' 
TABS,ioos:station:wmo:42043:1,2006-03-03T03:30:00Z,28.9818,-94.9186,4.0,2.229259967,99.29370778,2.61,'11111222,11111222,11111222' 
TABS,ioos:station:wmo:42043:1,2006-03-03T04:00:00Z,28.9818,-94.9186,4.0,2.550019608,100.1645668,3.17,'11111222,11111222,11111222' 
TABS,ioos:station:wmo:42043:1,2006-03-03T04:30:00Z,28.9818,-94.9186,4.0,2.705124766,102.5981195,3.39,'11111222,11111222,11111222' 
TABS,ioos:station:wmo:42043:1,2006-03-03T05:00:00Z,28.9818,-94.9186,4.0,2.250777643,104.4070724,2.81,'11111222,11111222,11111222' 
TABS,ioos:station:wmo:42043:1,2006-03-03T05:30:00Z,28.9818,-94.9186,4.0,2.823118843,120.1983522,3.63,'11111222,11111222,11111222' 
TABS,ioos:station:wmo:42043:1,2006-03-03T06:00:00Z,28.9818,-94.9186,4.0,2.246441631,131.2102429,2.82,'11111222,11111222,11111222' 
TABS,ioos:station:wmo:42043:1,2006-03-03T06:30:00Z,28.9818,-94.9186,4.0,1.896523135,117.6463316,2.37,'11111222,11111222,11111222' 
TABS,ioos:station:wmo:42043:1,2006-03-03T07:00:00Z,28.9818,-94.9186,4.0,2.595322716,134.2197694,3.35,'11111222,11111222,11111222' 
TABS,ioos:station:wmo:42043:1,2006-03-03T07:30:00Z,28.9818,-94.9186,4.0,2.440348336,133.5059856,3.11,'11111222,11111222,11111222' 
TABS,ioos:station:wmo:42043:1,2006-03-03T08:00:00Z,28.9818,-94.9186,4.0,2.437970467,129.1739873,3.14,'11111222,11111222,11111222' 
TABS,ioos:station:wmo:42043:1,2006-03-03T08:30:00Z,28.9818,-94.9186,4.0,2.13475994,105.2084245,2.72,'11111222,11111222,11111222' 
TABS,ioos:station:wmo:42043:1,2006-03-03T09:00:00Z,28.9818,-94.9186,4.0,2.501939248,107.2041306,3.17,'11111222,11111222,11111222' 
TABS,ioos:station:wmo:42043:1,2006-03-03T09:30:00Z,28.9818,-94.9186,4.0,2.113220291,111.9528221,2.78,'11111222,11111222,11111222' 
TABS,ioos:station:wmo:42043:1,2006-03-03T10:00:00Z,28.9818,-94.9186,4.0,1.914157778,116.0299522,2.48,'11111222,11111222,11111222' 
TABS,ioos:station:wmo:42043:1,2006-03-03T10:30:00Z,28.9818,-94.9186,4.0,1.89409609,111.6894352,2.71,'11111222,11111222,11111222' 
TABS,ioos:station:wmo:42043:1,2006-03-03T11:00:00Z,28.9818,-94.9186,4.0,1.46860478,150.6425256,2.19,'11111222,11111222,11111222' 
TABS,ioos:station:wmo:42043:1,2006-03-03T11:30:00Z,28.9818,-94.9186,4.0,1.565790535,58.84762955,2.09,'11111222,11111222,11111222' 
TABS,ioos:station:wmo:42043:1,2006-03-03T12:00:00Z,28.9818,-94.9186,4.0,2.083122656,57.14874751,2.46,'11111222,11111222,11111222' 
TABS,ioos:station:wmo:42043:1,2006-03-03T12:30:00Z,28.9818,-94.9186,4.0,2.365354096,29.92487015,3.61,'11111222,11111222,11111222' 
TABS,ioos:station:wmo:42043:1,2006-03-03T13:00:00Z,28.9818,-94.9186,4.0,3.168627463,18.20597134,3.94,'11111222,11111222,11111222' 
TABS,ioos:station:wmo:42043:1,2006-03-03T13:30:00Z,28.9818,-94.9186,4.0,4.016466108,25.67160036,4.87,'11111222,11111222,11111222' 
TABS,ioos:station:wmo:42043:1,2006-03-03T14:00:00Z,28.9818,-94.9186,4.0,3.694387635,34.07690513,4.33,'11111222,11111222,11111222' 
TABS,ioos:station:wmo:42043:1,2006-03-03T14:30:00Z,28.9818,-94.9186,4.0,5.461080479,33.95166616,7.01,'11111222,11111222,11111222' 
TABS,ioos:station:wmo:42043:1,2006-03-03T15:00:00Z,28.9818,-94.9186,4.0,5.754389629,41.19498502,7.22,'11111222,11111222,11111222' 
TABS,ioos:station:wmo:42043:1,2006-03-03T15:30:00Z,28.9818,-94.9186,4.0,6.4238462,39.31420667,7.92,'11111222,11111222,11111222' 
TABS,ioos:station:wmo:42043:1,2006-03-03T16:00:00Z,28.9818,-94.9186,4.0,7.387624787,49.17125057,8.68,'11111222,11111222,11111222' 
TABS,ioos:station:wmo:42043:1,2006-03-03T16:30:00Z,28.9818,-94.9186,4.0,7.421381273,51.40014703,8.84,'11111222,11111222,11111222' 
TABS,ioos:station:wmo:42043:1,2006-03-03T17:00:00Z,28.9818,-94.9186,4.0,6.119027701,55.45255712,7.3,'11111222,11111222,11111222' 
TABS,ioos:station:wmo:42043:1,2006-03-03T17:30:00Z,28.9818,-94.9186,4.0,6.153056151,54.1913665,8.03,'11111222,11111222,11111222' 
TABS,ioos:station:wmo:42043:1,2006-03-03T18:00:00Z,28.9818,-94.9186,4.0,6.493596846,54.40044237,7.72,'11111222,11111222,11111222' 
TABS,ioos:station:wmo:42043:1,2006-03-03T18:30:00Z,28.9818,-94.9186,4.0,6.356807375,60.08707325,7.84,'11111222,11111222,11111222' 
TABS,ioos:station:wmo:42043:1,2006-03-03T19:00:00Z,28.9818,-94.9186,4.0,5.807925619,56.80209092,7.27,'11111222,11111222,11111222' 
TABS,ioos:station:wmo:42043:1,2006-03-03T19:30:00Z,28.9818,-94.9186,4.0,6.505420817,68.91785399,7.99,'11111222,11111222,11111222' 
TABS,ioos:station:wmo:42043:1,2006-03-03T20:00:00Z,28.9818,-94.9186,4.0,5.858882146,85.39837374,7.07,'11111222,11111222,11111222' 
TABS,ioos:station:wmo:42043:1,2006-03-03T20:30:00Z,28.9818,-94.9186,4.0,5.29638556,92.81419974,7.01,'11111222,11111222,11111222' 
TABS,ioos:station:wmo:42043:1,2006-03-03T21:00:00Z,28.9818,-94.9186,4.0,5.5649708,73.29051234,6.8,'11111222,11111222,11111222' 
TABS,ioos:station:wmo:42043:1,2006-03-03T21:30:00Z,28.9818,-94.9186,4.0,5.575957317,72.57203695,6.78,'11111222,11111222,11111222' 
TABS,ioos:station:wmo:42043:1,2006-03-03T22:00:00Z,28.9818,-94.9186,4.0,5.084879546,77.27525315,6.53,'11111222,11111222,11111222' 
TABS,ioos:station:wmo:42043:1,2006-03-03T22:30:00Z,28.9818,-94.9186,4.0,5.197018376,87.02156539,6.42,'11111222,11111222,11111222' 
TABS,ioos:station:wmo:42043:1,2006-03-03T23:00:00Z,28.9818,-94.9186,4.0,4.932595666,91.85926204,5.86,'11111222,11111222,11111222' 
TABS,ioos:station:wmo:42043:1,2006-03-03T23:30:00Z,28.9818,-94.9186,4.0,4.950686821,103.194522,5.71,'11111222,11111222,11111222' 
TABS,ioos:station:wmo:42043:1,2006-03-04T00:00:00Z,28.9818,-94.9186,4.0,4.717806694,104.8613962,5.72,'11111222,11111222,11111222' 
TABS,ioos:station:wmo:42043:1,2006-03-04T00:30:00Z,28.9818,-94.9186,4.0,4.222380845,107.3624999,5.08,'11111222,11111222,11111222' 
TABS,ioos:station:wmo:42043:1,2006-03-04T01:00:00Z,28.9818,-94.9186,4.0,3.614595413,108.8864641,4.32,'11111222,11111222,11111222' 
TABS,ioos:station:wmo:42043:1,2006-03-04T01:30:00Z,28.9818,-94.9186,4.0,3.077027787,112.1475546,3.75,'11111222,11111222,11111222' 
TABS,ioos:station:wmo:42043:1,2006-03-04T02:00:00Z,28.9818,-94.9186,4.0,2.581317493,100.2655374,3.22,'11111222,11111222,11111222' 
TABS,ioos:station:wmo:42043:1,2006-03-04T02:30:00Z,28.9818,-94.9186,4.0,3.321806737,119.1889817,4.34,'11111222,11111222,11111222' 
TABS,ioos:station:wmo:42043:1,2006-03-04T03:00:00Z,28.9818,-94.9186,4.0,2.706233545,113.0599578,3.36,'11111222,11111222,11111222' 
TABS,ioos:station:wmo:42043:1,2006-03-04T03:30:00Z,28.9818,-94.9186,4.0,3.128657859,109.9991267,4.0,'11111222,11111222,11111222' 
TABS,ioos:station:wmo:42043:1,2006-03-04T04:00:00Z,28.9818,-94.9186,4.0,2.867228627,101.4670862,3.53,'11111222,11111222,11111222' 
TABS,ioos:station:wmo:42043:1,2006-03-04T04:30:00Z,28.9818,-94.9186,4.0,3.013735224,92.85332556,3.66,'11111222,11111222,11111222' 
TABS,ioos:station:wmo:42043:1,2006-03-04T05:00:00Z,28.9818,-94.9186,4.0,2.261526033,109.6371569,2.8,'11111222,11111222,11111222' 
TABS,ioos:station:wmo:42043:1,2006-03-04T05:30:00Z,28.9818,-94.9186,4.0,2.583273118,87.11502875,3.13,'11111222,11111222,11111222' 
TABS,ioos:station:wmo:42043:1,2006-03-04T06:00:00Z,28.9818,-94.9186,4.0,2.516445906,69.04385136,3.1,'11111222,11111222,11111222' 
TABS,ioos:station:wmo:42043:1,2006-03-04T06:30:00Z,28.9818,-94.9186,4.0,2.798660394,78.2480195,3.39,'11111222,11111222,11111222' 
TABS,ioos:station:wmo:42043:1,2006-03-04T07:00:00Z,28.9818,-94.9186,4.0,2.323617869,76.56142235,2.78,'11111222,11111222,11111222' 
TABS,ioos:station:wmo:42043:1,2006-03-04T07:30:00Z,28.9818,-94.9186,4.0,2.878506557,66.01693604,3.41,'11111222,11111222,11111222' 
TABS,ioos:station:wmo:42043:1,2006-03-04T08:00:00Z,28.9818,-94.9186,4.0,2.864349839,50.80878267,3.54,'11111222,11111222,11111222' 
TABS,ioos:station:wmo:42043:1,2006-03-04T08:30:00Z,28.9818,-94.9186,4.0,4.715612367,69.25871204,5.61,'11111222,11111222,11111222' 
TABS,ioos:station:wmo:42043:1,2006-03-04T09:00:00Z,28.9818,-94.9186,4.0,6.786162391,75.84050448,8.41,'11111222,11111222,11111222' 
TABS,ioos:station:wmo:42043:1,2006-03-04T09:30:00Z,28.9818,-94.9186,4.0,7.363592873,75.52931882,8.8,'11111222,11111222,11111222' 
TABS,ioos:station:wmo:42043:1,2006-03-04T10:00:00Z,28.9818,-94.9186,4.0,8.453271556,76.80178145,10.24,'11111222,11111222,11111222' 
TABS,ioos:station:wmo:42043:1,2006-03-04T10:30:00Z,28.9818,-94.9186,4.0,8.355656767,73.95061182,10.42,'11111222,11111222,11111222' 
TABS,ioos:station:wmo:42043:1,2006-03-04T11:00:00Z,28.9818,-94.9186,4.0,8.234907407,75.15335143,10.23,'11111222,11111222,11111222' 
TABS,ioos:station:wmo:42043:1,2006-03-04T11:30:00Z,28.9818,-94.9186,4.0,8.355369531,76.07978904,10.4,'11111222,11111222,11111222' 
TABS,ioos:station:wmo:42043:1,2006-03-04T12:00:00Z,28.9818,-94.9186,4.0,8.371427596,77.72320276,10.12,'11111222,11111222,11111222' 
TABS,ioos:station:wmo:42043:1,2006-03-04T12:30:00Z,28.9818,-94.9186,4.0,8.058517233,78.98249323,9.93,'11111222,11111222,11111222' 
TABS,ioos:station:wmo:42043:1,2006-03-04T13:00:00Z,28.9818,-94.9186,4.0,7.661670836,79.7750214,9.37,'11111222,11111222,11111222' 
TABS,ioos:station:wmo:42043:1,2006-03-04T13:30:00Z,28.9818,-94.9186,4.0,7.94642687,84.51140803,9.68,'11111222,11111222,11111222' 
TABS,ioos:station:wmo:42043:1,2006-03-04T14:00:00Z,28.9818,-94.9186,4.0,7.508728255,79.79713119,9.66,'11111222,11111222,11111222' 
TABS,ioos:station:wmo:42043:1,2006-03-04T14:30:00Z,28.9818,-94.9186,4.0,7.416373777,82.32837554,8.95,'11111222,11111222,11111222' 
TABS,ioos:station:wmo:42043:1,2006-03-04T15:00:00Z,28.9818,-94.9186,4.0,6.97826626,76.66036137,8.5,'11111222,11111222,11111222' 
TABS,ioos:station:wmo:42043:1,2006-03-04T15:30:00Z,28.9818,-94.9186,4.0,6.450713139,79.36903622,8.0,'11111222,11111222,11111222' 
TABS,ioos:station:wmo:42043:1,2006-03-04T16:00:00Z,28.9818,-94.9186,4.0,6.126377396,74.37538104,7.87,'11111222,11111222,11111222' 
TABS,ioos:station:wmo:42043:1,2006-03-04T16:30:00Z,28.9818,-94.9186,4.0,6.133326993,74.49050587,7.62,'11111222,11111222,11111222' 
TABS,ioos:station:wmo:42043:1,2006-03-04T17:00:00Z,28.9818,-94.9186,4.0,5.921570738,70.15705082,7.27,'11111222,11111222,11111222' 
TABS,ioos:station:wmo:42043:1,2006-03-04T17:30:00Z,28.9818,-94.9186,4.0,5.250561875,64.02021507,6.29,'11111222,11111222,11111222' 
TABS,ioos:station:wmo:42043:1,2006-03-04T18:00:00Z,28.9818,-94.9186,4.0,5.331266266,64.20361291,6.26,'11111222,11111222,11111222' 
TABS,ioos:station:wmo:42043:1,2006-03-04T18:30:00Z,28.9818,-94.9186,4.0,5.472449177,73.98231332,6.93,'11111222,11111222,11111222' 